• In Österreich
  • Länderverzeichnis
  • Für 7 Tage
  • Wassertemperatur
  • Satellitenkarten
  • Wetterkarte
  • News
  • Widgets
  • user-avatar
    Anmelden

    Stündliche Wetter Lezhe

    Heute, 22 Februar, Donnerstag

    Zeit Temperatur Niederschläge Wind Luftdruck Luftfeuchtigkeit
    00:00 +5°C° 0,5 mm 3 m/S 728 mmHg 87%
    01:00 +5°C° 0,5 mm 3 m/S 728 mmHg 87%
    02:00 +5°C° 0,8 mm 3 m/S 728 mmHg 88%
    03:00 +5°C° 0,8 mm 3 m/S 729 mmHg 88%
    04:00 +5°C° 0,8 mm 3 m/S 729 mmHg 89%
    05:00 +5°C° 0,3 mm 3 m/S 729 mmHg 89%
    06:00 +5°C° 0,3 mm 3 m/S 729 mmHg 88%
    07:00 +5°C° 0,3 mm 3 m/S 729 mmHg 88%
    08:00 +7°C° 0 mm 2 m/S 730 mmHg 86%
    09:00 +8°C° 0 mm 2 m/S 730 mmHg 84%
    10:00 +9°C° 0 mm 2 m/S 730 mmHg 82%
    11:00 +10°C° 0 mm 2 m/S 730 mmHg 80%
    12:00 +10°C° 0 mm 2 m/S 730 mmHg 77%
    13:00 +12°C° 0 mm 2 m/S 730 mmHg 75%
    14:00 +12°C° 0,1 mm 2 m/S 730 mmHg 76%
    15:00 +12°C° 0,1 mm 2 m/S 730 mmHg 76%
    16:00 +12°C° 0,1 mm 1 m/S 730 mmHg 77%
    17:00 +10°C° 0,1 mm 2 m/S 730 mmHg 79%
    18:00 +9°C° 0,1 mm 2 m/S 731 mmHg 81%
    19:00 +8°C° 0,1 mm 2 m/S 731 mmHg 83%
    20:00 +7°C° 0,1 mm 2 m/S 731 mmHg 83%
    21:00 +7°C° 0,1 mm 2 m/S 731 mmHg 83%
    22:00 +7°C° 0,1 mm 3 m/S 732 mmHg 83%
    23:00 +5°C° 0 mm 3 m/S 732 mmHg 83%

    Morgen, 23 Februar, Freitag

    Zeit Temperatur Niederschläge Wind Luftdruck Luftfeuchtigkeit
    00:00 +5°C° 0 mm 3 m/S 732 mmHg 83%
    01:00 +5°C° 0 mm 3 m/S 732 mmHg 83%
    02:00 +5°C° 0 mm 3 m/S 732 mmHg 83%
    03:00 +5°C° 0 mm 3 m/S 731 mmHg 83%
    04:00 +5°C° 0 mm 3 m/S 731 mmHg 83%
    05:00 +5°C° 0 mm 3 m/S 731 mmHg 83%
    06:00 +5°C° 0 mm 3 m/S 731 mmHg 83%
    07:00 +5°C° 0 mm 3 m/S 732 mmHg 83%
    08:00 +8°C° 0 mm 3 m/S 732 mmHg 81%
    09:00 +9°C° 0 mm 3 m/S 732 mmHg 79%
    10:00 +10°C° 0 mm 3 m/S 732 mmHg 77%
    11:00 +11°C° 0 mm 3 m/S 732 mmHg 74%
    12:00 +12°C° 0 mm 3 m/S 732 mmHg 71%
    13:00 +12°C° 0 mm 3 m/S 732 mmHg 69%
    14:00 +12°C° 0 mm 3 m/S 732 mmHg 70%
    15:00 +12°C° 0 mm 3 m/S 732 mmHg 71%
    16:00 +12°C° 0 mm 3 m/S 732 mmHg 73%
    17:00 +10°C° 0 mm 3 m/S 732 mmHg 76%
    18:00 +8°C° 0 mm 4 m/S 732 mmHg 78%
    19:00 +7°C° 0 mm 4 m/S 732 mmHg 81%
    20:00 +7°C° 0 mm 4 m/S 732 mmHg 81%
    21:00 +6°C° 0 mm 4 m/S 732 mmHg 82%
    22:00 +6°C° 0 mm 4 m/S 732 mmHg 82%
    23:00 +6°C° 0 mm 4 m/S 732 mmHg 82%

    übermorgen, 24 Februar, Samstag

    Zeit Temperatur Niederschläge Wind Luftdruck Luftfeuchtigkeit
    00:00 +6°C° 0 mm 4 m/S 732 mmHg 82%
    01:00 +6°C° 0 mm 4 m/S 731 mmHg 83%
    02:00 +6°C° 0 mm 4 m/S 731 mmHg 83%
    03:00 +5°C° 0 mm 4 m/S 731 mmHg 83%
    04:00 +5°C° 0 mm 4 m/S 731 mmHg 83%
    05:00 +5°C° 0 mm 4 m/S 731 mmHg 83%
    06:00 +5°C° 0 mm 4 m/S 731 mmHg 83%
    07:00 +5°C° 0 mm 4 m/S 731 mmHg 84%
    08:00 +8°C° 0 mm 3 m/S 731 mmHg 80%
    09:00 +9°C° 0 mm 3 m/S 732 mmHg 77%
    10:00 +10°C° 0 mm 3 m/S 732 mmHg 74%
    11:00 +11°C° 0 mm 3 m/S 732 mmHg 72%
    12:00 +12°C° 0 mm 2 m/S 732 mmHg 70%
    13:00 +13°C° 0 mm 2 m/S 732 mmHg 68%
    14:00 +13°C° 0 mm 2 m/S 731 mmHg 69%
    15:00 +12°C° 0 mm 2 m/S 731 mmHg 70%
    16:00 +12°C° 0 mm 2 m/S 731 mmHg 72%
    17:00 +10°C° 0 mm 2 m/S 731 mmHg 75%
    18:00 +9°C° 0 mm 2 m/S 732 mmHg 78%
    19:00 +8°C° 0 mm 2 m/S 732 mmHg 81%
    20:00 +7°C° 0 mm 3 m/S 732 mmHg 82%
    21:00 +7°C° 0 mm 3 m/S 732 mmHg 82%
    22:00 +7°C° 0 mm 3 m/S 732 mmHg 83%
    23:00 +5°C° 0,1 mm 3 m/S 732 mmHg 83%

    25 Februar, Sonntag

    Zeit Temperatur Niederschläge Wind Luftdruck Luftfeuchtigkeit
    00:00 +5°C° 0,1 mm 3 m/S 732 mmHg 83%
    01:00 +5°C° 0,1 mm 3 m/S 732 mmHg 83%
    02:00 +5°C° 0,1 mm 3 m/S 732 mmHg 83%
    03:00 +4°C° 0,1 mm 3 m/S 732 mmHg 83%
    04:00 +4°C° 0,1 mm 3 m/S 732 mmHg 83%
    05:00 +4°C° 0 mm 3 m/S 732 mmHg 83%
    06:00 +4°C° 0 mm 3 m/S 732 mmHg 82%
    07:00 +3°C° 0 mm 3 m/S 733 mmHg 82%
    08:00 +4°C° 0 mm 3 m/S 733 mmHg 78%
    09:00 +5°C° 0 mm 3 m/S 733 mmHg 74%
    10:00 +6°C° 0 mm 4 m/S 733 mmHg 69%
    11:00 +7°C° 0,1 mm 4 m/S 733 mmHg 68%
    12:00 +7°C° 0,1 mm 4 m/S 732 mmHg 67%
    13:00 +8°C° 0,1 mm 3 m/S 732 mmHg 65%
    14:00 +7°C° 0,2 mm 4 m/S 732 mmHg 67%
    15:00 +6°C° 0,2 mm 4 m/S 732 mmHg 68%
    16:00 +6°C° 0,2 mm 4 m/S 732 mmHg 70%
    17:00 +5°C° 0,5 mm 4 m/S 732 mmHg 73%
    18:00 +4°C° 0,5 mm 4 m/S 732 mmHg 76%
    19:00 +3°C° 0,5 mm 4 m/S 732 mmHg 79%
    20:00 +1°C° 0,7 mm 4 m/S 732 mmHg 81%
    21:00 +1°C° 0,7 mm 4 m/S 732 mmHg 83%
    22:00 0°C° 0,7 mm 4 m/S 732 mmHg 85%
    23:00 0°C° 0,8 mm 4 m/S 732 mmHg 85%

    26 Februar, Montag

    Zeit Temperatur Niederschläge Wind Luftdruck Luftfeuchtigkeit
    00:00 0°C° 0,8 mm 4 m/S 731 mmHg 85%
    01:00 0°C° 0,8 mm 4 m/S 731 mmHg 86%
    02:00 0°C° 0,6 mm 5 m/S 730 mmHg 85%
    03:00 0°C° 0,6 mm 5 m/S 730 mmHg 84%
    04:00 0°C° 0,6 mm 5 m/S 729 mmHg 83%
    05:00 0°C° 0,3 mm 5 m/S 729 mmHg 83%
    06:00 0°C° 0,3 mm 5 m/S 728 mmHg 82%
    07:00 -1°C° 0,3 mm 6 m/S 728 mmHg 82%
    08:00 -1°C° 1 mm 6 m/S 727 mmHg 83%
    09:00 -1°C° 1 mm 6 m/S 727 mmHg 85%
    10:00 +1°C° 1 mm 6 m/S 727 mmHg 86%
    11:00 +1°C° 1,1 mm 5 m/S 726 mmHg 87%
    12:00 +1°C° 1,1 mm 5 m/S 726 mmHg 87%
    13:00 +1°C° 1,1 mm 5 m/S 725 mmHg 87%
    14:00 +2°C° 1,1 mm 5 m/S 725 mmHg 87%
    15:00 +2°C° 1,1 mm 5 m/S 724 mmHg 87%
    16:00 +2°C° 1,1 mm 5 m/S 724 mmHg 87%
    17:00 +1°C° 2 mm 4 m/S 724 mmHg 88%
    18:00 +1°C° 2 mm 4 m/S 724 mmHg 89%
    19:00 +2°C° 2 mm 3 m/S 723 mmHg 90%
    20:00 +1°C° 2,1 mm 4 m/S 723 mmHg 91%
    21:00 0°C° 2,1 mm 4 m/S 723 mmHg 92%
    22:00 0°C° 2,1 mm 4 m/S 723 mmHg 93%
    23:00 +1°C° 1,4 mm 4 m/S 723 mmHg 94%

    27 Februar, Dienstag

    Zeit Temperatur Niederschläge Wind Luftdruck Luftfeuchtigkeit
    00:00 +1°C° 1,4 mm 5 m/S 723 mmHg 94%
    01:00 +1°C° 1,4 mm 6 m/S 723 mmHg 95%
    02:00 +1°C° 1,1 mm 6 m/S 723 mmHg 95%
    03:00 +1°C° 1,1 mm 6 m/S 724 mmHg 95%
    04:00 +1°C° 1,1 mm 6 m/S 724 mmHg 95%
    05:00 +1°C° 0,8 mm 5 m/S 724 mmHg 95%
    06:00 +1°C° 0,8 mm 5 m/S 724 mmHg 94%
    07:00 +1°C° 0,8 mm 5 m/S 725 mmHg 94%
    08:00 +1°C° 0,7 mm 5 m/S 725 mmHg 93%
    09:00 +1°C° 0,7 mm 6 m/S 725 mmHg 92%
    10:00 +1°C° 0,7 mm 6 m/S 725 mmHg 91%
    11:00 +1°C° 0,6 mm 6 m/S 726 mmHg 90%
    12:00 0°C° 0,6 mm 7 m/S 726 mmHg 88%
    13:00 0°C° 0,6 mm 7 m/S 726 mmHg 87%
    14:00 +1°C° 0,4 mm 6 m/S 726 mmHg 87%
    15:00 +1°C° 0,4 mm 6 m/S 727 mmHg 86%
    16:00 +1°C° 0,4 mm 5 m/S 727 mmHg 86%
    17:00 0°C° 0,3 mm 4 m/S 727 mmHg 87%
    18:00 0°C° 0,3 mm 3 m/S 728 mmHg 88%
    19:00 -1°C° 0,3 mm 3 m/S 729 mmHg 89%
    20:00 -1°C° 0,2 mm 2 m/S 729 mmHg 89%
    21:00 -2°C° 0,2 mm 2 m/S 729 mmHg 88%
    22:00 -2°C° 0,2 mm 2 m/S 730 mmHg 88%
    23:00 -3°C° 0 mm 2 m/S 730 mmHg 88%
    Mehr zeigen